Skip Page Navigation
NASA JPL Caltech
NASA Logo - Jet Propulsion Laboratory + View the NASA Portal
+ Center for Near-Earth Object Studies
JPL Home Earth Solar System Stars & Galaxies Technology
JPL Solar System Dynamics
BODIES ORBITS EPHEMERIDES TOOLS PHYSICAL DATA DISCOVERY FAQ SITE MAP
JPL Small-Body Database Browser
Search: [ help ]  
80717 (2000 CX22)
Classification: Main-belt Asteroid          SPK-ID: 2080717
Ephemeris | Orbit Diagram | Orbital Elements | Mission Design | Physical Parameters | Discovery Circumstances | Close-Approach Data ]

[ show orbit diagram ]
Orbital Elements at Epoch 2459200.5 (2020-Dec-17.0) TDB
Reference: JPL 21 (heliocentric ecliptic J2000)
 Element Value Uncertainty (1-sigma)   Units 
e .06523952217464286 4.9678e-08  
a 2.369925174104383 1.1213e-08 au
q 2.215312388156156 1.1665e-07 au
i 4.647901270144478 4.931e-06 deg
node 241.0451798848578 5.4248e-05 deg
peri 340.7971530664815 6.1882e-05 deg
M 180.4636099789085 3.1788e-05 deg
tp 2459865.084741480910
(2022-Oct-12.58474148)
0.00011949 TDB
period 1332.601746671084
3.65
9.4574e-06
2.589e-08
d
yr
n .2701482276301233 1.9172e-09 deg/d
Q 2.52453796005261 1.1944e-08 au
  Orbit Determination Parameters
   # obs. used (total)      682  
   data-arc span      7619 days (20.86 yr)  
   first obs. used      2000-02-02  
   last obs. used      2020-12-12  
   planetary ephem.      DE441  
   SB-pert. ephem.      SB441-N16  
   condition code      0  
   norm. resid. RMS      .54492  
   source      ORB  
   producer      Otto Matic  
   solution date      2021-Apr-13 13:48:41  

Additional Information
 Earth MOID = 1.20559 au 
 Jupiter MOID = 2.45298 au 
 T_jup = 3.538 
[ show covariance matrix ]

Ephemeris | Orbit Diagram | Orbital Elements | Mission Design | Physical Parameters | Discovery Circumstances | Close-Approach Data ]

Physical Parameter Table
Parameter Symbol Value Units Sigma Reference Notes
absolute magnitude H 15.93   n/a E2021B10  

80717 (2000 CX22)          Discovered 2000-Feb-02 by LINEAR at Socorro
Reference: 20040504/Numbers.arcLast Updated: 2004-07-16

[ hide close-approach data ]
Close-Approach Data   ...sorted by Date/Time (TDB)
Date/Time (TDB) Time Uncertainty
(days_HH:MM)
Body Nominal Distance (au) Minimum Distance (au) Maximum Distance (au) V-relative (km/s) V-infinity (km/s) JD (TDB) Time Uncertainty (minutes) Semi-major axis (km) Semi-minor axis (km) range-LOV angle (deg) N-sigma BP Orbit Ref. Reference Modified
1996-Jul-03 05:25 < 00:01 Iris 0.0150274811578598 0.0150257962035562 0.0150291664411294 5.72656283499962 5.72656276819711 2450267.725466662 0.310109264571072 162.585618089365 50.8197438198086 64.3339852612854 40306.4511501331 T 21 CATAB v2.0f-lin.ifort 2021-Apr-13 13:48:43 2021-Apr-13 13:48

Alternate Designations
 2000 CX22 = 2001 MU25 
Ephemeris | Orbit Diagram | Orbital Elements | Mission Design | Physical Parameters | Discovery Circumstances | Close-Approach Data ]
ABOUT SSD CREDITS/AWARDS PRIVACY/COPYRIGHT GLOSSARY LINKS
FirstGov 2021-Jun-23 00:48 UT
(server date/time)  
NASA Home Page
Site Manager:   Ryan S. Park
Webmaster  Alan B. Chamberlin